Location: Baix
(44.7118°N, 4.7648°E)
Time: 01:14:09
(UTC+00:00)

Vanguard 3 - Pass Details

Date: 30 November 2020
Orbit: 508 x 3262 km, 33.3° (Epoch: 19 January)

Event Time Altitude Azimuth Distance (km) Brightness Sun altitude
Rises 21:57:47 0° 244° (WSW) 2,606 - -60.3°
Reaches altitude 10° 22:00:15 10° 224° (SW) 1,794 - -60.6°
Maximum altitude 22:03:05 19° 177° (S) 1,464 - -61.0°
Drops below altitude 10° 22:06:32 10° 132° (SE) 2,249 - -61.4°
Sets 22:10:10 0° 116° (ESE) 3,570 - -61.9°
